Year,Month,Day,Hour,Minute,Value (Times are PST for temperature in C)
2015,10,16,00,00,12.10
2015,10,16,00,01,12.10
2015,10,16,00,02,12.00
2015,10,16,00,03,12.00
2015,10,16,00,04,11.90
2015,10,16,00,05,11.90
2015,10,16,00,06,11.80
2015,10,16,00,07,11.80
2015,10,16,00,08,11.80
2015,10,16,00,09,11.80
2015,10,16,00,10,11.80
2015,10,16,00,11,11.80
2015,10,16,00,12,11.80
2015,10,16,00,13,11.70
2015,10,16,00,14,11.70
2015,10,16,00,15,11.70
2015,10,16,00,16,11.70
2015,10,16,00,17,11.70
2015,10,16,00,18,11.70
2015,10,16,00,19,11.60
2015,10,16,00,20,11.50
2015,10,16,00,21,11.50
2015,10,16,00,22,11.50
2015,10,16,00,23,11.50
2015,10,16,00,24,11.50
2015,10,16,00,25,11.60
2015,10,16,00,26,11.60
2015,10,16,00,27,11.70
2015,10,16,00,28,11.80
2015,10,16,00,29,11.80
2015,10,16,00,30,11.90
2015,10,16,00,31,12.00
2015,10,16,00,32,12.10
2015,10,16,00,33,12.10
2015,10,16,00,34,12.20
2015,10,16,00,35,12.20
2015,10,16,00,36,12.20
2015,10,16,00,37,12.30
2015,10,16,00,38,12.30
2015,10,16,00,39,12.30
2015,10,16,00,40,12.30
2015,10,16,00,41,12.30
2015,10,16,00,42,12.20
2015,10,16,00,43,12.20
2015,10,16,00,44,12.20
2015,10,16,00,45,12.20
2015,10,16,00,46,12.20
2015,10,16,00,47,12.20
2015,10,16,00,48,12.20
2015,10,16,00,49,12.20
2015,10,16,00,50,12.20
2015,10,16,00,51,12.10
2015,10,16,00,52,12.10
2015,10,16,00,53,12.10
2015,10,16,00,54,12.00
2015,10,16,00,55,12.00
2015,10,16,00,56,11.90
2015,10,16,00,57,11.90
2015,10,16,00,58,11.80
2015,10,16,00,59,11.80
2015,10,16,01,00,11.80
2015,10,16,01,01,11.80
2015,10,16,01,02,11.80
2015,10,16,01,03,11.70
2015,10,16,01,04,11.70
2015,10,16,01,05,11.70
2015,10,16,01,06,11.70
2015,10,16,01,07,11.60
2015,10,16,01,08,11.60
2015,10,16,01,09,11.60
2015,10,16,01,10,11.60
2015,10,16,01,11,11.60
2015,10,16,01,12,11.50
2015,10,16,01,13,11.50
2015,10,16,01,14,11.50
2015,10,16,01,15,11.50
2015,10,16,01,16,11.50
2015,10,16,01,17,11.40
2015,10,16,01,18,11.40
2015,10,16,01,19,11.40
2015,10,16,01,20,11.40
2015,10,16,01,21,11.40
2015,10,16,01,22,11.40
2015,10,16,01,23,11.40
2015,10,16,01,24,11.40
2015,10,16,01,25,11.30
2015,10,16,01,26,11.30
2015,10,16,01,27,11.30
2015,10,16,01,28,11.30
2015,10,16,01,29,11.30
2015,10,16,01,30,11.30
2015,10,16,01,31,11.30
2015,10,16,01,32,11.30
2015,10,16,01,33,11.30
2015,10,16,01,34,11.30
2015,10,16,01,35,11.30
2015,10,16,01,36,11.30
2015,10,16,01,37,11.30
2015,10,16,01,38,11.30
2015,10,16,01,39,11.30
2015,10,16,01,40,11.30
2015,10,16,01,41,11.30
2015,10,16,01,42,11.30
2015,10,16,01,43,11.30
2015,10,16,01,44,11.30
2015,10,16,01,45,11.40
2015,10,16,01,46,11.40
2015,10,16,01,47,11.40
2015,10,16,01,48,11.40
2015,10,16,01,49,11.40
2015,10,16,01,50,11.40
2015,10,16,01,51,11.40
2015,10,16,01,52,11.50
2015,10,16,01,53,11.50
2015,10,16,01,54,11.60
2015,10,16,01,55,11.60
2015,10,16,01,56,11.70
2015,10,16,01,57,11.70
2015,10,16,01,58,11.70
2015,10,16,01,59,11.70
2015,10,16,02,00,11.70
2015,10,16,02,01,11.70
2015,10,16,02,02,11.70
2015,10,16,02,03,11.80
2015,10,16,02,04,11.80
2015,10,16,02,05,11.80
2015,10,16,02,06,11.80
2015,10,16,02,07,11.80
2015,10,16,02,08,11.70
2015,10,16,02,09,11.70
2015,10,16,02,10,11.70
2015,10,16,02,11,11.70
2015,10,16,02,12,11.70
2015,10,16,02,13,11.60
2015,10,16,02,14,11.60
2015,10,16,02,15,11.60
2015,10,16,02,16,11.60
2015,10,16,02,17,11.50
2015,10,16,02,18,11.50
2015,10,16,02,19,11.40
2015,10,16,02,20,11.40
2015,10,16,02,21,11.30
2015,10,16,02,22,11.30
2015,10,16,02,23,11.20
2015,10,16,02,24,11.20
2015,10,16,02,25,11.20
2015,10,16,02,26,11.20
2015,10,16,02,27,11.20
2015,10,16,02,28,11.20
2015,10,16,02,29,11.20
2015,10,16,02,30,11.20
2015,10,16,02,31,11.20
2015,10,16,02,32,11.10
2015,10,16,02,33,11.10
2015,10,16,02,34,11.10
2015,10,16,02,35,11.10
2015,10,16,02,36,11.10
2015,10,16,02,37,11.00
2015,10,16,02,38,10.90
2015,10,16,02,39,10.90
2015,10,16,02,40,10.90
2015,10,16,02,41,10.90
2015,10,16,02,42,10.80
2015,10,16,02,43,10.80
2015,10,16,02,44,10.80
2015,10,16,02,45,10.90
2015,10,16,02,46,10.90
2015,10,16,02,47,10.90
2015,10,16,02,48,10.90
2015,10,16,02,49,10.90
2015,10,16,02,50,10.90
2015,10,16,02,51,10.90
2015,10,16,02,52,10.90
2015,10,16,02,53,10.90
2015,10,16,02,54,10.90
2015,10,16,02,55,10.90
2015,10,16,02,56,10.90
2015,10,16,02,57,10.90
2015,10,16,02,58,11.00
2015,10,16,02,59,11.00
2015,10,16,03,00,11.00
2015,10,16,03,01,11.00
2015,10,16,03,02,11.00
2015,10,16,03,06,10.80
2015,10,16,03,07,10.80
2015,10,16,03,08,10.70
2015,10,16,03,09,10.70
2015,10,16,03,10,10.70
2015,10,16,03,11,10.70
2015,10,16,03,12,10.70
2015,10,16,03,13,10.60
2015,10,16,03,14,10.60
2015,10,16,03,15,10.60
2015,10,16,03,16,10.60
2015,10,16,03,17,10.60
2015,10,16,03,18,10.60
2015,10,16,03,19,10.50
2015,10,16,03,20,10.50
2015,10,16,03,21,10.50
2015,10,16,03,22,10.40
2015,10,16,03,23,10.40
2015,10,16,03,24,10.40
2015,10,16,03,25,10.40
2015,10,16,03,26,10.40
2015,10,16,03,27,10.40
2015,10,16,03,28,10.30
2015,10,16,03,29,10.30
2015,10,16,03,30,10.30
2015,10,16,03,31,10.30
2015,10,16,03,32,10.30
2015,10,16,03,33,10.20
2015,10,16,03,34,10.20
2015,10,16,03,35,10.20
2015,10,16,03,36,10.10
2015,10,16,03,37,10.10
2015,10,16,03,38,10.10
2015,10,16,03,39,10.10
2015,10,16,03,40,10.10
2015,10,16,03,41,10.10
2015,10,16,03,42,10.10
2015,10,16,03,43,10.00
2015,10,16,03,44,10.00
2015,10,16,03,45,10.00
2015,10,16,03,46,10.00
2015,10,16,03,47,10.00
2015,10,16,03,48,10.00
2015,10,16,03,49,9.90
2015,10,16,03,50,9.90
2015,10,16,03,51,9.90
2015,10,16,03,52,9.90
2015,10,16,03,53,9.90
2015,10,16,03,54,9.90
2015,10,16,03,55,9.90
2015,10,16,03,56,9.90
2015,10,16,03,57,9.90
2015,10,16,03,58,9.90
2015,10,16,03,59,10.00
2015,10,16,04,00,9.90
2015,10,16,04,01,9.90
2015,10,16,04,02,9.90
2015,10,16,04,03,9.90
2015,10,16,04,04,10.00
2015,10,16,04,05,10.00
2015,10,16,04,06,9.90
2015,10,16,04,07,9.90
2015,10,16,04,08,10.00
2015,10,16,04,09,10.00
2015,10,16,04,10,10.00
2015,10,16,04,11,9.90
2015,10,16,04,12,9.90
2015,10,16,04,13,9.90
2015,10,16,04,14,9.90
2015,10,16,04,15,9.90
2015,10,16,04,16,9.90
2015,10,16,04,17,9.90
2015,10,16,04,18,9.90
2015,10,16,04,19,9.90
2015,10,16,04,20,9.90
2015,10,16,04,21,9.90
2015,10,16,04,22,9.90
2015,10,16,04,23,9.90
2015,10,16,04,24,9.90
2015,10,16,04,25,9.90
2015,10,16,04,26,9.90
2015,10,16,04,27,9.90
2015,10,16,04,28,10.00
2015,10,16,04,29,10.00
2015,10,16,04,30,10.00
2015,10,16,04,31,10.00
2015,10,16,04,32,10.00
2015,10,16,04,33,10.00
2015,10,16,04,34,10.00
2015,10,16,04,35,10.00
2015,10,16,04,36,10.00
2015,10,16,04,37,10.00
2015,10,16,04,38,10.00
2015,10,16,04,39,10.10
2015,10,16,04,40,10.10
2015,10,16,04,41,10.10
2015,10,16,04,42,10.10
2015,10,16,04,43,10.10
2015,10,16,04,44,10.10
2015,10,16,04,45,10.10
2015,10,16,04,46,10.10
2015,10,16,04,47,10.10
2015,10,16,04,48,10.10
2015,10,16,04,49,10.10
2015,10,16,04,50,10.10
2015,10,16,04,51,10.10
2015,10,16,04,52,10.10
2015,10,16,04,53,10.10
2015,10,16,04,54,10.10
2015,10,16,04,55,10.10
2015,10,16,04,56,10.10
2015,10,16,04,57,10.10
2015,10,16,04,58,10.10
2015,10,16,04,59,10.10
2015,10,16,05,00,10.10
2015,10,16,05,01,10.20
2015,10,16,05,02,10.20
2015,10,16,05,03,10.20
2015,10,16,05,04,10.20
2015,10,16,05,05,10.20
2015,10,16,05,06,10.20
2015,10,16,05,07,10.20
2015,10,16,05,08,10.20
2015,10,16,05,09,10.20
2015,10,16,05,10,10.30
2015,10,16,05,11,10.30
2015,10,16,05,12,10.40
2015,10,16,05,13,10.50
2015,10,16,05,14,10.60
2015,10,16,05,15,10.60
2015,10,16,05,16,10.60
2015,10,16,05,17,10.60
2015,10,16,05,18,10.60
2015,10,16,05,19,10.50
2015,10,16,05,20,10.50
2015,10,16,05,21,10.40
2015,10,16,05,22,10.40
2015,10,16,05,23,10.40
2015,10,16,05,24,10.30
2015,10,16,05,25,10.30
2015,10,16,05,26,10.30
2015,10,16,05,27,10.20
2015,10,16,05,28,10.20
2015,10,16,05,29,10.10
2015,10,16,05,30,10.10
2015,10,16,05,31,10.10
2015,10,16,05,32,10.00
2015,10,16,05,33,10.00
2015,10,16,05,34,10.00
2015,10,16,05,35,10.00
2015,10,16,05,36,9.90
2015,10,16,05,37,9.90
2015,10,16,05,38,9.90
2015,10,16,05,39,9.90
2015,10,16,05,40,9.80
2015,10,16,05,41,9.80
2015,10,16,05,42,9.80
2015,10,16,05,43,9.80
2015,10,16,05,44,9.80
2015,10,16,05,45,9.80
2015,10,16,05,46,9.80
2015,10,16,05,47,9.80
2015,10,16,05,48,9.80
2015,10,16,05,49,9.80
2015,10,16,05,50,9.80
2015,10,16,05,51,9.80
2015,10,16,05,52,9.80
2015,10,16,05,53,9.80
2015,10,16,05,54,9.80
2015,10,16,05,55,9.80
2015,10,16,05,56,9.80
2015,10,16,05,57,9.80
2015,10,16,05,58,9.80
2015,10,16,05,59,9.70
2015,10,16,06,00,9.70
2015,10,16,06,01,9.70
2015,10,16,06,02,9.70
2015,10,16,06,03,9.70
2015,10,16,06,04,9.70
2015,10,16,06,05,9.70
2015,10,16,06,06,9.70
2015,10,16,06,07,9.70
2015,10,16,06,08,9.70
2015,10,16,06,09,9.70
2015,10,16,06,10,9.70
2015,10,16,06,11,9.60
2015,10,16,06,12,9.60
2015,10,16,06,13,9.70
2015,10,16,06,14,9.70
2015,10,16,06,15,9.70
2015,10,16,06,16,9.70
2015,10,16,06,17,9.70
2015,10,16,06,18,9.70
2015,10,16,06,19,9.70
2015,10,16,06,20,9.70
2015,10,16,06,21,9.70
2015,10,16,06,22,9.70
2015,10,16,06,23,9.70
2015,10,16,06,24,9.70
2015,10,16,06,25,9.70
2015,10,16,06,26,9.70
2015,10,16,06,27,9.70
2015,10,16,06,28,9.70
2015,10,16,06,29,9.60
2015,10,16,06,30,9.60
2015,10,16,06,31,9.60
2015,10,16,06,32,9.60
2015,10,16,06,33,9.60
2015,10,16,06,34,9.60
2015,10,16,06,35,9.50
2015,10,16,06,36,9.50
2015,10,16,06,37,9.50
2015,10,16,06,38,9.40
2015,10,16,06,39,9.40
2015,10,16,06,40,9.40
2015,10,16,06,41,9.30
2015,10,16,06,42,9.30
2015,10,16,06,43,9.30
2015,10,16,06,44,9.30
2015,10,16,06,45,9.30
2015,10,16,06,46,9.20
2015,10,16,06,47,9.20
2015,10,16,06,48,9.20
2015,10,16,06,49,9.20
2015,10,16,06,50,9.20
2015,10,16,06,51,9.20
2015,10,16,06,52,9.20
2015,10,16,06,53,9.20
2015,10,16,06,54,9.20
2015,10,16,06,55,9.20
2015,10,16,06,56,9.20
2015,10,16,06,57,9.20
2015,10,16,06,58,9.20
2015,10,16,06,59,9.20
2015,10,16,07,00,9.20
2015,10,16,07,01,9.20
2015,10,16,07,02,9.20
2015,10,16,07,03,9.20
2015,10,16,07,04,9.20
2015,10,16,07,05,9.20
2015,10,16,07,06,9.30
2015,10,16,07,07,9.20
2015,10,16,07,08,9.20
2015,10,16,07,09,9.20
2015,10,16,07,10,9.20
2015,10,16,07,11,9.20
2015,10,16,07,12,9.20
2015,10,16,07,13,9.20
2015,10,16,07,14,9.20
2015,10,16,07,15,9.20
2015,10,16,07,16,9.20
2015,10,16,07,17,9.20
2015,10,16,07,18,9.20
2015,10,16,07,19,9.20
2015,10,16,07,20,9.20
2015,10,16,07,21,9.20
2015,10,16,07,22,9.20
2015,10,16,07,23,9.20
2015,10,16,07,24,9.10
2015,10,16,07,25,9.10
2015,10,16,07,26,9.10
2015,10,16,07,27,9.10
2015,10,16,07,28,9.10
2015,10,16,07,29,9.10
2015,10,16,07,30,9.10
2015,10,16,07,31,9.10
2015,10,16,07,32,9.10
2015,10,16,07,33,9.10
2015,10,16,07,34,9.10
2015,10,16,07,35,9.10
2015,10,16,07,36,9.10
2015,10,16,07,37,9.10
2015,10,16,07,38,9.10
2015,10,16,07,39,9.10
2015,10,16,07,40,9.10
2015,10,16,07,41,9.10
2015,10,16,07,42,9.10
2015,10,16,07,43,9.10
2015,10,16,07,44,9.10
2015,10,16,07,45,9.10
2015,10,16,07,46,9.10
2015,10,16,07,47,9.10
2015,10,16,07,48,9.10
2015,10,16,07,49,9.10
2015,10,16,07,50,9.10
2015,10,16,07,51,9.10
2015,10,16,07,52,9.10
2015,10,16,07,53,9.10
2015,10,16,07,54,9.10
2015,10,16,07,55,9.10
2015,10,16,07,56,9.10
2015,10,16,07,57,9.10
2015,10,16,07,58,9.10
2015,10,16,07,59,9.10
2015,10,16,08,00,9.10
2015,10,16,08,01,9.10
2015,10,16,08,02,9.10
2015,10,16,08,03,9.10
2015,10,16,08,04,9.10
2015,10,16,08,05,9.10
2015,10,16,08,06,9.10
2015,10,16,08,07,9.10
2015,10,16,08,08,9.10
2015,10,16,08,09,9.10
2015,10,16,08,10,9.10
2015,10,16,08,11,9.10
2015,10,16,08,12,9.10
2015,10,16,08,13,9.10
2015,10,16,08,14,9.10
2015,10,16,08,15,9.10
2015,10,16,08,16,9.10
2015,10,16,08,17,9.20
2015,10,16,08,18,9.20
2015,10,16,08,19,9.20
2015,10,16,08,20,9.20
2015,10,16,08,21,9.20
2015,10,16,08,22,9.20
2015,10,16,08,23,9.20
2015,10,16,08,24,9.20
2015,10,16,08,25,9.20
2015,10,16,08,26,9.20
2015,10,16,08,27,9.20
2015,10,16,08,28,9.20
2015,10,16,08,29,9.20
2015,10,16,08,30,9.20
2015,10,16,08,31,9.20
2015,10,16,08,32,9.30
2015,10,16,08,33,9.30
2015,10,16,08,34,9.30
2015,10,16,08,35,9.40
2015,10,16,08,36,9.40
2015,10,16,08,37,9.50
2015,10,16,08,38,9.50
2015,10,16,08,39,9.60
2015,10,16,08,40,9.60
2015,10,16,08,41,9.70
2015,10,16,08,42,9.70
2015,10,16,08,43,9.80
2015,10,16,08,44,9.80
2015,10,16,08,45,9.80
2015,10,16,08,46,9.80
2015,10,16,08,47,9.80
2015,10,16,08,48,9.80
2015,10,16,08,49,9.80
2015,10,16,08,50,9.90
2015,10,16,08,51,9.90
2015,10,16,08,52,9.90
2015,10,16,08,53,9.90
2015,10,16,08,54,9.90
2015,10,16,08,55,9.90
2015,10,16,08,56,9.90
2015,10,16,08,57,9.90
2015,10,16,08,58,9.90
2015,10,16,08,59,9.90
2015,10,16,09,00,9.90
2015,10,16,09,01,9.90
2015,10,16,09,02,9.90
2015,10,16,09,03,9.90
2015,10,16,09,04,10.00
2015,10,16,09,05,10.00
2015,10,16,09,06,10.00
2015,10,16,09,07,10.00
2015,10,16,09,08,10.10
2015,10,16,09,09,10.10
2015,10,16,09,10,10.10
2015,10,16,09,11,10.20
2015,10,16,09,12,10.20
2015,10,16,09,13,10.20
2015,10,16,09,14,10.20
2015,10,16,09,15,10.20
2015,10,16,09,16,10.30
2015,10,16,09,17,10.30
2015,10,16,09,18,10.30
2015,10,16,09,19,10.30
2015,10,16,09,20,10.40
2015,10,16,09,21,10.40
2015,10,16,09,22,10.50
2015,10,16,09,23,10.50
2015,10,16,09,24,10.50
2015,10,16,09,25,10.50
2015,10,16,09,26,10.60
2015,10,16,09,27,10.60
2015,10,16,09,28,10.60
2015,10,16,09,29,10.60
2015,10,16,09,30,10.60
2015,10,16,09,31,10.60
2015,10,16,09,32,10.60
2015,10,16,09,33,10.60
2015,10,16,09,34,10.60
2015,10,16,09,35,10.70
2015,10,16,09,36,10.70
2015,10,16,09,37,10.70
2015,10,16,09,38,10.80
2015,10,16,09,39,10.80
2015,10,16,09,40,10.90
2015,10,16,09,41,10.90
2015,10,16,09,42,10.90
2015,10,16,09,43,11.00
2015,10,16,09,44,11.00
2015,10,16,09,45,11.10
2015,10,16,09,46,11.20
2015,10,16,09,47,11.20
2015,10,16,09,48,11.30
2015,10,16,09,49,11.30
2015,10,16,09,50,11.30
2015,10,16,09,51,11.40
2015,10,16,09,52,11.40
2015,10,16,09,53,11.50
2015,10,16,09,54,11.60
2015,10,16,09,55,11.70
2015,10,16,09,56,11.80
2015,10,16,09,57,11.80
2015,10,16,09,58,11.90
2015,10,16,09,59,12.00
2015,10,16,10,00,12.10
2015,10,16,10,01,12.20
2015,10,16,10,02,12.30
2015,10,16,10,03,12.40
2015,10,16,10,04,12.50
2015,10,16,10,05,12.50
2015,10,16,10,06,12.60
2015,10,16,10,07,12.60
2015,10,16,10,08,12.70
2015,10,16,10,09,12.70
2015,10,16,10,10,12.80
2015,10,16,10,11,12.80
2015,10,16,10,12,12.90
2015,10,16,10,13,12.90
2015,10,16,10,14,12.90
2015,10,16,10,15,13.00
2015,10,16,10,16,13.00
2015,10,16,10,17,13.10
2015,10,16,10,18,13.10
2015,10,16,10,19,13.10
2015,10,16,10,20,13.20
2015,10,16,10,21,13.20
2015,10,16,10,22,13.20
2015,10,16,10,23,13.20
2015,10,16,10,24,13.30
2015,10,16,10,25,13.30
2015,10,16,10,26,13.30
2015,10,16,10,27,13.30
2015,10,16,10,28,13.40
2015,10,16,10,29,13.40
2015,10,16,10,30,13.40
2015,10,16,10,31,13.50
2015,10,16,10,32,13.50
2015,10,16,10,33,13.50
2015,10,16,10,34,13.50
2015,10,16,10,35,13.50
2015,10,16,10,36,13.60
2015,10,16,10,37,13.60
2015,10,16,10,38,13.60
2015,10,16,10,39,13.60
2015,10,16,10,40,13.60
2015,10,16,10,41,13.60
2015,10,16,10,42,13.60
2015,10,16,10,43,13.60
2015,10,16,10,44,13.60
2015,10,16,10,45,13.60
2015,10,16,10,46,13.70
2015,10,16,10,47,13.70
2015,10,16,10,48,13.70
2015,10,16,10,49,13.70
2015,10,16,10,50,13.70
2015,10,16,10,51,13.70
2015,10,16,10,52,13.70
2015,10,16,10,53,13.70
2015,10,16,10,54,13.80
2015,10,16,10,55,13.80
2015,10,16,10,56,13.80
2015,10,16,10,57,13.90
2015,10,16,10,58,13.90
2015,10,16,10,59,14.00
2015,10,16,11,00,14.00
2015,10,16,11,01,14.10
2015,10,16,11,02,14.20
2015,10,16,11,03,14.30
2015,10,16,11,04,14.40
2015,10,16,11,05,14.50
2015,10,16,11,06,14.50
2015,10,16,11,07,14.60
2015,10,16,11,08,14.70
2015,10,16,11,09,14.80
2015,10,16,11,10,14.90
2015,10,16,11,11,14.90
2015,10,16,11,12,14.90
2015,10,16,11,13,15.00
2015,10,16,11,14,15.00
2015,10,16,11,15,15.10
2015,10,16,11,16,15.10
2015,10,16,11,17,15.10
2015,10,16,11,18,15.20
2015,10,16,11,19,15.30
2015,10,16,11,20,15.30
2015,10,16,11,21,15.40
2015,10,16,11,22,15.40
2015,10,16,11,23,15.40
2015,10,16,11,24,15.40
2015,10,16,11,25,15.40
2015,10,16,11,26,15.50
2015,10,16,11,27,15.50
2015,10,16,11,28,15.50
2015,10,16,11,29,15.50
2015,10,16,11,30,15.50
2015,10,16,11,31,15.50
2015,10,16,11,32,15.50
2015,10,16,11,33,15.50
2015,10,16,11,34,15.50
2015,10,16,11,35,15.50
2015,10,16,11,36,15.50
2015,10,16,11,37,15.50
2015,10,16,11,38,15.50
2015,10,16,11,39,15.50
2015,10,16,11,40,15.50
2015,10,16,11,41,15.50
2015,10,16,11,42,15.50
2015,10,16,11,43,15.60
2015,10,16,11,44,15.60
2015,10,16,11,45,15.60
2015,10,16,11,46,15.70
2015,10,16,11,47,15.70
2015,10,16,11,48,15.70
2015,10,16,11,49,15.80
2015,10,16,11,50,15.90
2015,10,16,11,51,16.00
2015,10,16,11,52,16.10
2015,10,16,11,53,16.20
2015,10,16,11,54,16.30
2015,10,16,11,55,16.30
2015,10,16,11,56,16.40
2015,10,16,11,57,16.50
2015,10,16,11,58,16.60
2015,10,16,11,59,16.60
2015,10,16,12,00,16.70
2015,10,16,12,01,16.70
2015,10,16,12,02,16.70
2015,10,16,12,03,16.70
2015,10,16,12,04,16.70
2015,10,16,12,05,16.70
2015,10,16,12,06,16.60
2015,10,16,12,07,16.60
2015,10,16,12,08,16.60
2015,10,16,12,09,16.60
2015,10,16,12,10,16.50
2015,10,16,12,11,16.50
2015,10,16,12,12,16.40
2015,10,16,12,13,16.40
2015,10,16,12,14,16.40
2015,10,16,12,15,16.40
2015,10,16,12,16,16.30
2015,10,16,12,17,16.30
2015,10,16,12,18,16.30
2015,10,16,12,19,16.20
2015,10,16,12,20,16.20
2015,10,16,12,21,16.20
2015,10,16,12,22,16.20
2015,10,16,12,23,16.20
2015,10,16,12,24,16.20
2015,10,16,12,25,16.20
2015,10,16,12,26,16.20
2015,10,16,12,27,16.20
2015,10,16,12,28,16.20
2015,10,16,12,29,16.30
2015,10,16,12,30,16.30
2015,10,16,12,31,16.30
2015,10,16,12,32,16.30
2015,10,16,12,33,16.30
2015,10,16,12,34,16.30
2015,10,16,12,35,16.40
2015,10,16,12,36,16.40
2015,10,16,12,37,16.40
2015,10,16,12,38,16.40
2015,10,16,12,39,16.40
2015,10,16,12,40,16.40
2015,10,16,12,41,16.40
2015,10,16,12,42,16.40
2015,10,16,12,43,16.40
2015,10,16,12,44,16.40
2015,10,16,12,45,16.40
2015,10,16,12,46,16.40
2015,10,16,12,47,16.40
2015,10,16,12,48,16.40
2015,10,16,12,49,16.50
2015,10,16,12,50,16.50
2015,10,16,12,51,16.60
2015,10,16,12,52,16.60
2015,10,16,12,53,16.60
2015,10,16,12,54,16.70
2015,10,16,12,55,16.70
2015,10,16,12,56,16.70
2015,10,16,12,57,16.70
2015,10,16,12,58,16.70
2015,10,16,12,59,16.70
2015,10,16,13,00,16.80
2015,10,16,13,01,16.80
2015,10,16,13,02,16.80
2015,10,16,13,03,16.90
2015,10,16,13,04,16.90
2015,10,16,13,05,16.90
2015,10,16,13,06,16.90
2015,10,16,13,07,16.90
2015,10,16,13,08,16.90
2015,10,16,13,09,16.90
2015,10,16,13,10,16.80
2015,10,16,13,11,16.80
2015,10,16,13,12,16.80
2015,10,16,13,13,16.80
2015,10,16,13,14,16.70
2015,10,16,13,15,16.70
2015,10,16,13,16,16.70
2015,10,16,13,17,16.70
2015,10,16,13,18,16.60
2015,10,16,13,19,16.60
2015,10,16,13,20,16.60
2015,10,16,13,21,16.50
2015,10,16,13,22,16.50
2015,10,16,13,23,16.50
2015,10,16,13,24,16.40
2015,10,16,13,25,16.40
2015,10,16,13,26,16.30
2015,10,16,13,27,16.30
2015,10,16,13,28,16.30
2015,10,16,13,29,16.30
2015,10,16,13,30,16.30
2015,10,16,13,31,16.30
2015,10,16,13,32,16.30
2015,10,16,13,33,16.30
2015,10,16,13,34,16.30
2015,10,16,13,35,16.30
2015,10,16,13,36,16.30
2015,10,16,13,37,16.30
2015,10,16,13,38,16.30
2015,10,16,13,39,16.40
2015,10,16,13,40,16.40
2015,10,16,13,41,16.40
2015,10,16,13,42,16.40
2015,10,16,13,43,16.50
2015,10,16,13,44,16.50
2015,10,16,13,45,16.60
2015,10,16,13,46,16.60
2015,10,16,13,47,16.70
2015,10,16,13,48,16.70
2015,10,16,13,49,16.70
2015,10,16,13,50,16.80
2015,10,16,13,51,16.80
2015,10,16,13,52,16.90
2015,10,16,13,53,17.00
2015,10,16,13,54,17.00
2015,10,16,13,55,17.10
2015,10,16,13,56,17.20
2015,10,16,13,57,17.20
2015,10,16,13,58,17.30
2015,10,16,13,59,17.40
2015,10,16,14,00,17.50
2015,10,16,14,01,17.60
2015,10,16,14,02,17.70
2015,10,16,14,03,17.80
2015,10,16,14,04,17.90
2015,10,16,14,05,18.00
2015,10,16,14,06,18.10
2015,10,16,14,07,18.20
2015,10,16,14,08,18.20
2015,10,16,14,09,18.30
2015,10,16,14,10,18.30
2015,10,16,14,11,18.30
2015,10,16,14,12,18.30
2015,10,16,14,13,18.30
2015,10,16,14,14,18.30
2015,10,16,14,15,18.30
2015,10,16,14,16,18.30
2015,10,16,14,17,18.40
2015,10,16,14,18,18.40
2015,10,16,14,19,18.40
2015,10,16,14,20,18.40
2015,10,16,14,21,18.40
2015,10,16,14,22,18.40
2015,10,16,14,23,18.40
2015,10,16,14,24,18.30
2015,10,16,14,25,18.30
2015,10,16,14,26,18.30
2015,10,16,14,27,18.30
2015,10,16,14,28,18.20
2015,10,16,14,29,18.30
2015,10,16,14,30,18.30
2015,10,16,14,31,18.40
2015,10,16,14,32,18.40
2015,10,16,14,33,18.50
2015,10,16,14,34,18.60
2015,10,16,14,35,18.60
2015,10,16,14,36,18.50
2015,10,16,14,37,18.50
2015,10,16,14,38,18.50
2015,10,16,14,39,18.60
2015,10,16,14,40,18.70
2015,10,16,14,41,18.70
2015,10,16,14,42,18.80
2015,10,16,14,43,18.80
2015,10,16,14,44,18.80
2015,10,16,14,45,18.80
2015,10,16,14,46,18.80
2015,10,16,14,47,18.80
2015,10,16,14,48,18.80
2015,10,16,14,49,18.80
2015,10,16,14,50,18.70
2015,10,16,14,51,18.80
2015,10,16,14,52,18.80
2015,10,16,14,53,18.80
2015,10,16,14,54,18.80
2015,10,16,14,55,18.90
2015,10,16,14,56,18.90
2015,10,16,14,57,19.00
2015,10,16,14,58,19.00
2015,10,16,14,59,19.10
2015,10,16,15,00,19.10
2015,10,16,15,01,19.10
2015,10,16,15,02,19.00
2015,10,16,15,03,19.00
2015,10,16,15,04,19.00
2015,10,16,15,05,18.90
2015,10,16,15,06,18.90
2015,10,16,15,07,18.80
2015,10,16,15,08,18.80
2015,10,16,15,09,18.70
2015,10,16,15,10,18.70
2015,10,16,15,11,18.70
2015,10,16,15,12,18.70
2015,10,16,15,13,18.70
2015,10,16,15,14,18.60
2015,10,16,15,15,18.60
2015,10,16,15,16,18.60
2015,10,16,15,17,18.60
2015,10,16,15,18,18.60
2015,10,16,15,19,18.60
2015,10,16,15,20,18.60
2015,10,16,15,21,18.50
2015,10,16,15,22,18.60
2015,10,16,15,23,18.60
2015,10,16,15,24,18.60
2015,10,16,15,25,18.70
2015,10,16,15,26,18.70
2015,10,16,15,27,18.70
2015,10,16,15,28,18.70
2015,10,16,15,29,18.70
2015,10,16,15,30,18.70
2015,10,16,15,31,18.70
2015,10,16,15,32,18.70
2015,10,16,15,33,18.70
2015,10,16,15,34,18.70
2015,10,16,15,35,18.70
2015,10,16,15,36,18.70
2015,10,16,15,37,18.70
2015,10,16,15,38,18.70
2015,10,16,15,39,18.70
2015,10,16,15,40,18.70
2015,10,16,15,41,18.70
2015,10,16,15,42,18.70
2015,10,16,15,43,18.70
2015,10,16,15,44,18.70
2015,10,16,15,45,18.70
2015,10,16,15,46,18.70
2015,10,16,15,47,18.70
2015,10,16,15,48,18.70
2015,10,16,15,49,18.70
2015,10,16,15,50,18.70
2015,10,16,15,51,18.70
2015,10,16,15,52,18.70
2015,10,16,15,53,18.70
2015,10,16,15,54,18.70
2015,10,16,15,55,18.70
2015,10,16,15,56,18.80
2015,10,16,15,57,18.80
2015,10,16,15,58,18.80
2015,10,16,15,59,18.80
2015,10,16,16,00,18.90
2015,10,16,16,01,18.90
2015,10,16,16,02,18.90
2015,10,16,16,03,18.90
2015,10,16,16,04,18.80
2015,10,16,16,05,18.80
2015,10,16,16,06,18.80
2015,10,16,16,07,18.80
2015,10,16,16,08,18.80
2015,10,16,16,09,18.80
2015,10,16,16,10,18.80
2015,10,16,16,11,18.70
2015,10,16,16,12,18.70
2015,10,16,16,13,18.60
2015,10,16,16,14,18.50
2015,10,16,16,15,18.50
2015,10,16,16,16,18.40
2015,10,16,16,17,18.30
2015,10,16,16,18,18.20
2015,10,16,16,19,18.10
2015,10,16,16,20,18.10
2015,10,16,16,21,18.00
2015,10,16,16,22,17.80
2015,10,16,16,23,17.70
2015,10,16,16,24,17.50
2015,10,16,16,25,17.30
2015,10,16,16,26,17.20
2015,10,16,16,27,17.10
2015,10,16,16,28,17.00
2015,10,16,16,29,16.90
2015,10,16,16,30,16.80
2015,10,16,16,31,16.70
2015,10,16,16,32,16.60
2015,10,16,16,33,16.50
2015,10,16,16,34,16.50
2015,10,16,16,35,16.40
2015,10,16,16,36,16.40
2015,10,16,16,37,16.30
2015,10,16,16,38,16.30
2015,10,16,16,39,16.20
2015,10,16,16,40,16.20
2015,10,16,16,41,16.20
2015,10,16,16,42,16.10
2015,10,16,16,43,16.10
2015,10,16,16,44,16.10
2015,10,16,16,45,16.20
2015,10,16,16,46,16.20
2015,10,16,16,47,16.20
2015,10,16,16,48,16.30
2015,10,16,16,49,16.30
2015,10,16,16,50,16.30
2015,10,16,16,51,16.30
2015,10,16,16,52,16.30
2015,10,16,16,53,16.30
2015,10,16,16,54,16.30
2015,10,16,16,55,16.30
2015,10,16,16,56,16.30
2015,10,16,16,57,16.30
2015,10,16,16,58,16.40
2015,10,16,16,59,16.40
2015,10,16,17,00,16.40
2015,10,16,17,01,16.40
2015,10,16,17,02,16.40
2015,10,16,17,03,16.40
2015,10,16,17,04,16.40
2015,10,16,17,05,16.40
2015,10,16,17,06,16.40
2015,10,16,17,07,16.40
2015,10,16,17,08,16.40
2015,10,16,17,09,16.40
2015,10,16,17,10,16.40
2015,10,16,17,11,16.30
2015,10,16,17,12,16.30
2015,10,16,17,13,16.20
2015,10,16,17,14,16.20
2015,10,16,17,15,16.10
2015,10,16,17,16,16.10
2015,10,16,17,17,16.00
2015,10,16,17,18,15.80
2015,10,16,17,19,15.70
2015,10,16,17,20,15.60
2015,10,16,17,21,15.50
2015,10,16,17,22,15.30
2015,10,16,17,23,15.20
2015,10,16,17,24,15.10
2015,10,16,17,25,15.00
2015,10,16,17,26,14.90
2015,10,16,17,27,14.90
2015,10,16,17,28,14.80
2015,10,16,17,29,14.70
2015,10,16,17,30,14.60
2015,10,16,17,31,14.50
2015,10,16,17,32,14.40